Regional Weather Roundup
Issued by NWS Wakefield, VA

Home | Current Version | Previous Version | Text Only | Print | Product List | Glossary On
Versions: 1 2 3 4 5 6 7 8 9 10 11 12 13 14 15 16 17 18 19 20 21 22 23 24 25 26 27 28 29 30 31 32 33 34 35 36 37 38 39 40 41 42 43 44 45 46 47 48 49 50
000
ASUS41 KAKQ 050810
RWRAKQ

REGIONAL WEATHER ROUNDUP
NATIONAL WEATHER SERVICE WAKEFIELD VA
300 AM EST THU MAR 05 2015

Note: "fair" indicates few or no clouds below 12,000 feet with no
significant weather and/or obstructions to visibility. * = Denotes
station may not report precipitation (e.g., rain,snow,etc.),
thunder or fog.

VAZ042-051-052>054-056-050900-
NORTHERN VIRGINIA

CITY           SKY/WX    TMP DP  RH WIND       PRES   REMARKS
WASH NATIONAL  LGT RAIN  43  37  81 NW8       29.99F
DULLES         LGT RAIN  37  34  89 N10       29.98S
FORT BELVOIR   LGT RAIN  39  37  93 N7        29.98F
QUANTICO       LGT RAIN  40  36  86 NE10      29.99R
FREDERICKSBRG* RAIN      42  42 100 N6        29.96F
STAFFORD*      DRIZZLE   39  32  75 N8        30.01S
WARRENTON      DRIZZLE   40  40 100 NE5       29.96F
CULPEPER*      LGT RAIN  39  39 100 N9        29.96F
MANASSAS*      CLOUDY    37  37 100 N12       29.97F
LEESBURG*      LGT RAIN  37  36  93 N8        29.98F
WINCHESTER     DRIZZLE   36  32  87 NW7       29.98F
FRONT ROYAL*   CLOUDY    36  36 100 NE3       29.97S
LURAY*         LGT RAIN  39  39 100 NE8       29.96S
$$

VAZ048-049-060>072-079>083-050900-
CENTRAL AND SOUTH CENTRAL VIRGINIA

CITY           SKY/WX    TMP DP  RH WIND       PRES   REMARKS
RICHMOND       LGT RAIN  48  45  89 NE14      29.92S FOG
CHESTERFIELD*  CLOUDY    48  37  66 N10G16    29.92F
PETERSBURG*    CLOUDY    54  53  96 NE7       29.90F FOG
HANOVER        RAIN      45  44  97 VRB5      29.94F FOG
TAPPAHANNOCK*  HVY RAIN  45  43  94 N7        29.96R
QUINTON*       CLOUDY    47  46  96 N7        29.92S
CHARLOTTSVILLE LGT RAIN  43  41  93 NE9       29.93S FOG
GORDONSVILLE*  CLOUDY    41  41  99 CALM      29.95R FOG
ORANGE*        DRIZZLE   41  41 100 N6        29.97R
LOUISA*        DRIZZLE   45  43  93 NE13      29.93S
BUMPASS*       CLOUDY    43  42  95 N6        29.94S
FARMVILLE*     DRZL/FOG  51  51 100 N3        29.91F VSB 1
CREWE*         CLOUDY    52  50  95 CALM      29.89F
FORT PICKETT*  CLOUDY    52  51  97 NE3       29.90S
CHASE CITY*    CLOUDY    54  54 100 CALM      29.89S
CLARKSVILLE*   CLOUDY    52  52 100 CALM      29.87F
SOUTH HILL*    CLOUDY    53  51  95 N5        29.94F
LAWRENCEVILLE* CLOUDY    53  52  97 NE3       29.88F
EMPORIA*       DRIZZLE   52  52 100 N5        29.90F
$$

VAZ088>098-050900-
SOUTHEAST VIRGINIA

CITY           SKY/WX    TMP DP  RH WIND       PRES   REMARKS
NORFOLK        FOG       45  43  93 N8        29.91R VSB 3/4
VIRGINIA BEACH FOG       47  44  90 N6        29.90R VSB 1/4
NORFOLK NAVAL  FOG       48  44  86 N17       29.93R VSB 1/2
WEST POINT*    CLOUDY    49  47  93 N7        29.95R
SALUDA*        CLOUDY    43  42  97 N6        29.93R
NEWPORT NEWS   CLOUDY    53  50  89 NE8       29.91R FOG
LANGLEY AFB    CLOUDY    46  46 100 NE10G21   29.91R
FORT EUSTIS    CLOUDY    52 N/A N/A NE5       29.89S
WILLIAMSBURG*  CLOUDY    54  52  94 NE5       29.91F
HR EXEC AP*    CLOUDY    48  48 100 CALM      29.92F
FRANKLIN*      CLOUDY    52  51  98 CALM      29.90S
WAKEFIELD      CLOUDY    53  51  93 NE6       29.89F
$$

VAZ020-022-025-037-045-050900-
WEST CENTRAL AND SOUTHWEST VIRGINIA

CITY           SKY/WX    TMP DP  RH WIND       PRES   REMARKS
STAUNTON*      LGT RAIN  42  41  96 N7        29.95R
WAYNESBORO*    CLOUDY    42  42 100 N5        29.92S
HOT SPRINGS VA SNOW      35  35 100 W17       29.86S VSB<1/4 WCI  25
LYNCHBURG      LGT RAIN  48  48 100 N5        29.92S
DANVILLE       LGT RAIN  53  50  89 NE8       29.88F
SOUTH BOSTON*  CLOUDY    52  51  95 NE5       29.89F
MARTINSVILLE   DRIZZLE   51  51 100 N6        29.92F
ROANOKE        LGT RAIN  45  43  93 N7        29.95S FOG
BLACKSBURG     HVY RAIN  38  37  99 CALM      29.94F
DUBLIN*        CLOUDY    41  41 100 N6        29.93F
MARION*        CLOUDY    42  39  89 W6        29.93F
HILLSVILLE*    FOG       42  42 100 N5        29.90F VSB 1/2
RICHLANDS*     FOG       34  33  95 N7        29.96S VSB 1/4
WISE*          MIX PCPN  32  32 100 N10       30.00R WCI  24
ABINGDON*      CLOUDY    42  41  97 N6        29.92F
$$

MDZ021>025-VAZ099-100-050900-
SOUTHERN MARYLAND AND THE DELMARVA PENINSULA

CITY           SKY/WX    TMP DP  RH WIND       PRES   REMARKS
PATUXENT RIVER LGT RAIN  41  39  93 N12       29.94F FOG
BAY BRIDGE APT   N/A     37  37 100 N6        29.96F FOG
LEONARDTOWN    CLOUDY    41  39  93 N3        29.96F
DOVER          LGT RAIN  38  38 100 NW9       29.97R
GEORGETOWN     LGT RAIN  40  39  97 N8        29.97R FOG
EASTON         LGT RAIN  40  40 100 NE10      29.98F
CAMBRIDGE      CLOUDY    41  39  93 N7        29.94F
SALISBURY      LGT RAIN  45  42  89 N10       29.95R FOG
OCEAN CITY     CLOUDY    42  42 100 N13       29.94R
WALLOPS ISLAND CLOUDY    45  44  97 N14G21    29.93R
ACCOMACK*      CLOUDY    43  41  93 N6        29.91F FOG
$$

NCZ012>017-030>032-050900-
NORTH CENTRAL AND EASTERN NORTH CAROLINA

CITY           SKY/WX    TMP DP  RH WIND       PRES   REMARKS
ROANOKE RAPIDS CLOUDY    54  54 100 NE3       29.88F FOG
RALEIGH        LGT RAIN  65  58  78 SW15G25   29.86F
ELIZABETH CITY CLEAR     60  58  92 SW9       29.89S
AHOSKIE*       CLOUDY    56  55  97 CALM      29.89S
EDENTON*       CLEAR     59  57  94 S6        29.89F
CURRITUCK*     PTCLDY    62  58  87 SW5       29.89F
KILL DEVIL HLS CLEAR     61  60  99 SW9       29.89F
MANTEO         CLEAR     59  57  94 SW15      29.91F
CAPE HATTERAS  FOG       56  56 100 SW12      29.95F VSB 3/4
TARBORO*       FAIR      64  60  86 SW3       29.90S
GOLDSBORO      CLEAR     65  65 100 SW10      29.88F
WASHINGTON     CLEAR     67  62  85 SW13      29.90F
GREENVILLE     CLEAR     64  63  94 SW12G18   29.91F
NEW BERN       PTCLDY    68  63  84 SW12G21   29.93F
WILMINGTON     CLOUDY    68  65  90 SW22G35   29.95F
$$

VAZ048-050900-
ELSEWHERE

CITY           SKY/WX    TMP DP  RH WIND       PRES   REMARKS
HARRISBURG PA  FLURRIES  34  31  88 NW7       30.00R
BALTIMORE      LGT RAIN  38  37  97 N3        29.96F
ANNAPOLIS      CLOUDY    37  35  92 NW7       29.96F
ANDREWS AFB    LGT RAIN  40  39  99 N10       29.96F
PHILADELPHIA   LGT RAIN  38  35  89 NW8       29.95F
HENDERSON NC   CLOUDY    54  51  92 CALM      29.87F
GREENSBORO     LGT RAIN  63  59  87 SW7       29.85S
ROCKY MOUNT    PTCLDY    65  61  87 SW14      29.88S
$$

VAZ100-050900-
MARINE

STATION/POSITION TIME  TEMP    WIND        PRES    WAVE   SWELL
                       AIR SEA DIR/SP/G            HT/PER HT/PER
                 (UTC) (F)     (DEG/KT/KT) (MB)    (FT/S) (FT/S)
BRANDYWINE LGT   0800   37 31  340/ 12/ 16 1014.7R
CAPE MAY NJ      0800   37 34  330/  7/ 14 1014.1R
LEWES DE         0800   36 32  330/ 12/ 14 1014.6R
15NM E FENWICK I 0800   38 36              1013.2R   3/ 7
OCEAN-CITY-INLET 0800   40 35   10/  8/ 11 1013.3R
WACHAPREAGUE VA  0800   45 43  330/  4/  7 1012.7F
THOMAS POINT MD  0800   40 32   10/  8/  8 1015.6F
COVE POINT MD    0800   36      10/ 13/ 16 1013.9F
SOLOMONS ISLAND  0800      33                N/A
BISHOPS HEAD MD  0800   42 35   10/  8/ 11 1013.5F
CAMBRIDGE MD     0800   39 32   20/ 10/ 11 1014.2F
LEWISETTA VA     0800   41 34  360/  3/  6 1013.8R
RAPPAHANNOCK LGT 0800          340/ 14/ 15 1013.6R
STINGRAY PT      0800   38      10/ 14/ 14   N/A
YORK RVR RNG VA  0800   44      20/ 18/ 20 1012.2R
YORKTOWN VA      0800   45 35   60/  8/ 10 1012.5F
DOMINION TERM VA 0800   46     250/  7/ 14 1012.6F
KIPTOPEKE VA     0800      39  360/  5/ 13   N/A
CHES BAY BRIDGE  0800   40 35  360/ 13/ 14 1012.2R
CAPE HENRY VA    0800   40     290/  7/ 10 1011.4S
CHESAPEAKE LGHT  0700   45     340/  8/  8 1012.8R
WILLOUBY STN VA  0800   44      50/  7/  8 1013.5R
S CRANEY ISL VA  0800          360/  4/  4 1012.4F
CAPE HENRY BUOY  0800      36                N/A     3/ 7
1ST LANDING BUOY 0800   38     340/ 10/ 10 1012.3F
OFFSHORE WE BUOY 0800      37                N/A     5/ 7   5/ 7
64NM E OF VA BCH 0800   55 52  210/ 21/ 23 1011.2F   7/ 6
DUCK PIER NC     0800   60 35  200/ 14/ 18 1011.2F
44100 DUCK FRF   0700      38                N/A     4/ 7
44056 DUCK FRF   0800      36                N/A     3/10
OREGON INLET NC  0800   50 50  200/ 16/ 18 1013.1F
HATTERAS NC      0800   57 48  210/ 12/ 16 1014.5F
CAPE LOOKOUT NC  0800   59     220/  9/ 12 1015.0F
$$



USA.gov is the U.S. government's official web portal to all federal, state and local government web resources and services.